Showing default

ASTRA 1A, 19688

Orbit data source: Space-Track

ASTRA 1A, 19688 is a payload satellite owned by SES (LU) in GEO that was launched on Sun, 11 Dec 1988 UTC via an ARIANE 44LP launch vehicle from the French Guiana (FRGUI). Payload-class satellites include a variety of spacecraft equipped with specific instruments for various scientific and technological missions. These include communications satellites like Starlink; space stations such as the ISS; scientific satellites like the Hubble; Earth observation satellites from companies like Planet Labs, Umbra, and HawkEye 360; GPS; miniature CubeSats for education and research; and military/defense satellites.

Not visible in the next 10 days
Identifier
19688, 1988-109B
Orbit
GEO
Country
Flag of LULU / SES
Related business
Manufacturer
GE/East Windsor
Mission
Non-operational Commercial Communications
Bus & Motor
AS4000, STAR 37XFP
Mass
1,780 kg wet, ~850 kg dry
Launch date (UTC)
1988-12-11 (37 years ago)
Launch vehicle
ARIANE 44LP
Launch site
French Guiana (FRGUI)
Object type
Payload
Rocket body
Debris
Shape & HBR
Hex Poly + 2 Pan, 9.6 m
Radar Cross Section
11.738 m², Large (>1 m²)

Expand to show TLE details & history
Last TLE update: 1 day ago

TLE from 1 day ago
0 ASTRA 1A
1 19688U 88109B   25309.76053993 -.00000006  00000-0  00000-0 0  9996
2 19688  14.6799   7.6248 0014638 140.7189 230.7978  0.98337628113893
Epoch: 2025-11-05T18:15Z
TLE epoch observation values (Epoch: 2025-11-05T18:15:10.649Z)
Latitude
2.87603°
Longitude
59.60115°
Altitude
36,376.471 km
Speed
3.052 km/s
True Right ascension
01h 14m 29s
True Declination
2° 52' 23"
Sunlit
Object was in daylight at epoch
Visualization orbit readout
Latitude
Unknown
Longitude
Unknown
Altitude
Unknown
Speed
Unknown
Apparent Right ascension
Unknown
Apparent Declination
Unknown
Sunlit
N/A
Visualization observer readout
Local Sidereal Time
21:55:04
Azimuth
Unknown
Elevation
Unknown
Doppler factor
Unknown
Orbital elements
Apogee altitude
36,401.164 km
Perigee altitude
36,276.106 km
Semi-major axis
42,716.772 km
Eccentricity
0.00146
Inclination
14.6799°
RAAN
7.6248°
Arg. of periapsis
140.7189°
True anomaly
230.66797°
Mean anomaly
230.7978°
Eccentric anomaly
230.73287°
Mean motion
0.24584 °/min
Orbital period
1,464.39 mins
BSTAR
0
Loading maneuver chart data...
Computing Atmospheric mass density...
Loading historical data...
Loading historical data...
Loading historical data...
Loading historical data...
Loading historical data...
Loading historical data...
Loading historical data...

Documentation

Showing up to 5 results
|